| time (UTC) | temp C | wind direction | speed KPH | gust KPH | rain 1hr cm | rain 24hr cm | rain mn cm | humidity % | barometer mb |
| 20260506143706 | 8 | 89 | 6.4 | 16.1 | 0.00 | 0.00 | 0.00 | 65 | 1015.7 |
| 20260506143205 | 8 | 29 | 6.4 | 16.1 | 0.00 | 0.00 | 0.00 | 65 | 1015.7 |
| 20260506142705 | 8 | 36 | 8.0 | 12.9 | 0.00 | 0.00 | 0.00 | 64 | 1015.8 |
| 20260506142205 | 8 | 23 | 3.2 | 9.7 | 0.00 | 0.00 | 0.00 | 66 | 1015.7 |
| 20260506141205 | 7 | 46 | 3.2 | 8.0 | 0.00 | 0.00 | 0.00 | 65 | 1015.7 |
| 20260506140705 | 7 | 59 | 9.7 | 14.5 | 0.00 | 0.00 | 0.00 | 63 | 1015.8 |
| 20260506140206 | 7 | 60 | 4.8 | 16.1 | 0.00 | 0.00 | 0.00 | 66 | 1015.8 |
| 20260506135205 | 7 | 51 | 4.8 | 9.7 | 0.00 | 0.00 | 0.00 | 65 | 1015.7 |
| 20260506134706 | 7 | 41 | 4.8 | 12.9 | 0.00 | 0.00 | 0.00 | 65 | 1015.7 |
| 20260506134205 | 8 | 65 | 3.2 | 12.9 | 0.00 | 0.00 | 0.00 | 65 | 1015.8 |
| 20260506133705 | 8 | 38 | 4.8 | 11.3 | 0.00 | 0.00 | 0.00 | 64 | 1015.7 |
| 20260506133206 | 8 | 71 | 4.8 | 12.9 | 0.00 | 0.00 | 0.00 | 61 | 1015.7 |
| 20260506132706 | 9 | 63 | 9.7 | 19.3 | 0.00 | 0.00 | 0.00 | 63 | 1015.7 |
| 20260506131707 | 8 | 50 | 4.8 | 29.0 | 0.00 | 0.00 | 0.00 | 65 | 1015.7 |
| 20260506131206 | 8 | 59 | 4.8 | 29.0 | 0.00 | 0.00 | 0.00 | 67 | 1015.7 |
| 20260506130705 | 8 | 61 | 4.8 | 16.1 | 0.00 | 0.00 | 0.00 | 65 | 1015.8 |
| 20260506130205 | 8 | 59 | 4.8 | 16.1 | 0.00 | 0.00 | 0.00 | 65 | 1015.7 |
| 20260506125705 | 8 | 30 | 9.7 | 20.9 | 0.00 | 0.00 | 0.00 | 65 | 1015.7 |
| 20260506125205 | 8 | 60 | 9.7 | 14.5 | 0.00 | 0.00 | 0.00 | 66 | 1015.7 |
| 20260506124705 | 7 | 65 | 8.0 | 12.9 | 0.00 | 0.00 | 0.00 | 67 | 1015.8 |
| 20260506124206 | 7 | 65 | 4.8 | 12.9 | 0.00 | 0.00 | 0.00 | 67 | 1015.8 |
| 20260506123205 | 7 | 38 | 6.4 | 12.9 | 0.00 | 0.00 | 0.00 | 67 | 1015.8 |
| 20260506122705 | 7 | 61 | 8.0 | 12.9 | 0.00 | 0.00 | 0.00 | 66 | 1015.9 |
| 20260506122205 | 7 | 39 | 4.8 | 12.9 | 0.00 | 0.00 | 0.00 | 69 | 1015.9 |
| 20260506121706 | 7 | 57 | 6.4 | 11.3 | 0.00 | 0.00 | 0.00 | 67 | 1015.9 |
| 20260506121205 | 7 | 49 | 8.0 | 16.1 | 0.00 | 0.00 | 0.00 | 68 | 1015.9 |
| 20260506120206 | 7 | 59 | 6.4 | 12.9 | 0.00 | 0.00 | 0.00 | 68 | 1015.9 |
| 20260506115705 | 7 | 56 | 8.0 | 24.1 | 0.00 | 0.00 | 0.00 | 67 | 1015.9 |
| 20260506115205 | 7 | 52 | 8.0 | 24.1 | 0.00 | 0.00 | 0.00 | 69 | 1015.9 |
| 20260506114705 | 7 | 51 | 8.0 | 12.9 | 0.00 | 0.00 | 0.00 | 70 | 1015.9 |
| 20260506114206 | 7 | 52 | 3.2 | 12.9 | 0.00 | 0.00 | 0.00 | 70 | 1016.0 |
| 20260506113707 | 7 | 23 | 8.0 | 16.1 | 0.00 | 0.00 | 0.00 | 71 | 1016.0 |
| 20260506113206 | 7 | 58 | 3.2 | 9.7 | 0.00 | 0.00 | 0.00 | 69 | 1015.9 |
| 20260506112706 | 7 | 50 | 4.8 | 11.3 | 0.00 | 0.00 | 0.00 | 70 | 1016.0 |
| 20260506112206 | 7 | 36 | 4.8 | 11.3 | 0.00 | 0.00 | 0.00 | 69 | 1016.0 |
| 20260506111706 | 7 | 20 | 4.8 | 12.9 | 0.00 | 0.00 | 0.00 | 69 | 1016.0 |
| 20260506111206 | 7 | 43 | 4.8 | 12.9 | 0.00 | 0.00 | 0.00 | 69 | 1016.0 |
| 20260506110706 | 7 | 27 | 9.7 | 12.9 | 0.00 | 0.00 | 0.00 | 70 | 1016.0 |
| 20260506110205 | 7 | 43 | 6.4 | 16.1 | 0.00 | 0.00 | 0.00 | 70 | 1015.9 |
| 20260506105706 | 7 | 32 | 8.0 | 12.9 | 0.00 | 0.00 | 0.00 | 69 | 1015.9 |
| 20260506104706 | 7 | 53 | 8.0 | 12.9 | 0.00 | 0.00 | 0.00 | 69 | 1016.0 |
| 20260506104206 | 7 | 57 | 8.0 | 24.1 | 0.00 | 0.00 | 0.00 | 66 | 1016.0 |
| 20260506103706 | 7 | 49 | 8.0 | 19.3 | 0.00 | 0.00 | 0.00 | 68 | 1016.0 |
| 20260506103205 | 7 | 35 | 8.0 | 12.9 | 0.00 | 0.00 | 0.00 | 68 | 1016.0 |
| 20260506102706 | 7 | 40 | 11.3 | 27.4 | 0.00 | 0.00 | 0.00 | 64 | 1015.9 |
| 20260506102204 | 8 | 67 | 9.7 | 16.1 | 0.00 | 0.00 | 0.00 | 68 | 1015.9 |
| 20260506101706 | 7 | 29 | 9.7 | 20.9 | 0.00 | 0.00 | 0.00 | 67 | 1015.9 |
| 20260506101205 | 7 | 51 | 8.0 | 16.1 | 0.00 | 0.00 | 0.00 | 68 | 1016.0 |
| 20260506100706 | 7 | 64 | 4.8 | 12.9 | 0.00 | 0.00 | 0.00 | 69 | 1016.0 |
| 20260506100206 | 7 | 44 | 11.3 | 20.9 | 0.00 | 0.00 | 0.00 | 68 | 1016.0 |
| 20260506095706 | 6 | 49 | 8.0 | 12.9 | 0.00 | 0.00 | 0.00 | 68 | 1016.0 |
| 20260506095206 | 6 | 44 | 6.4 | 16.1 | 0.00 | 0.00 | 0.00 | 68 | 1016.1 |
| 20260506094707 | 6 | 49 | 8.0 | 19.3 | 0.00 | 0.00 | 0.00 | 68 | 1016.1 |
| 20260506094206 | 6 | 28 | 8.0 | 14.5 | 0.00 | 0.00 | 0.00 | 66 | 1016.0 |
| 20260506093705 | 6 | 56 | 6.4 | 20.9 | 0.00 | 0.00 | 0.00 | 67 | 1016.0 |
| 20260506093206 | 6 | 23 | 8.0 | 16.1 | 0.00 | 0.00 | 0.00 | 67 | 1016.0 |
| 20260506092705 | 6 | 63 | 6.4 | 11.3 | 0.00 | 0.00 | 0.00 | 66 | 1016.0 |
| 20260506091205 | 6 | 50 | 4.8 | 12.9 | 0.00 | 0.00 | 0.00 | 69 | 1016.0 |
| 20260506090705 | 6 | 25 | 4.8 | 11.3 | 0.00 | 0.00 | 0.00 | 68 | 1016.0 |
| 20260506090206 | 6 | 39 | 8.0 | 14.5 | 0.00 | 0.00 | 0.00 | 69 | 1016.0 |
| 20260506085707 | 6 | 29 | 6.4 | 11.3 | 0.00 | 0.00 | 0.00 | 71 | 1016.0 |
| 20260506085207 | 6 | 34 | 4.8 | 11.3 | 0.00 | 0.00 | 0.00 | 71 | 1016.0 |
| 20260506084706 | 6 | 52 | 6.4 | 12.9 | 0.00 | 0.00 | 0.00 | 71 | 1016.1 |
| 20260506084206 | 6 | 32 | 8.0 | 12.9 | 0.00 | 0.00 | 0.00 | 72 | 1016.1 |
| 20260506083705 | 6 | 31 | 4.8 | 12.9 | 0.00 | 0.00 | 0.00 | 73 | 1016.0 |
| 20260506083206 | 6 | 45 | 6.4 | 12.9 | 0.00 | 0.00 | 0.00 | 73 | 1016.0 |
| 20260506081706 | 6 | 41 | 9.7 | 16.1 | 0.00 | 0.00 | 0.00 | 74 | 1016.0 |
| 20260506081205 | 6 | 45 | 6.4 | 9.7 | 0.00 | 0.00 | 0.00 | 76 | 1015.9 |
| 20260506080705 | 6 | 10 | 8.0 | 11.3 | 0.00 | 0.00 | 0.00 | 78 | 1015.9 |
| 20260506080205 | 6 | 20 | 3.2 | 11.3 | 0.00 | 0.00 | 0.00 | 78 | 1015.8 |
| 20260506073205 | 6 | 57 | 9.7 | 24.1 | 0.00 | 0.00 | 0.00 | 78 | 1015.7 |
| 20260506072706 | 6 | 59 | 11.3 | 24.1 | 0.00 | 0.00 | 0.00 | 80 | 1015.7 |
| 20260506072205 | 6 | 53 | 8.0 | 22.5 | 0.00 | 0.00 | 0.00 | 83 | 1015.6 |
| 20260506071705 | 5 | 50 | 8.0 | 16.1 | 0.00 | 0.00 | 0.00 | 84 | 1015.6 |
| 20260506071205 | 5 | 64 | 12.9 | 22.5 | 0.00 | 0.00 | 0.00 | 85 | 1015.6 |
| 20260506070705 | 5 | 46 | 11.3 | 22.5 | 0.00 | 0.00 | 0.00 | 87 | 1015.5 |
| 20260506070205 | 5 | 49 | 8.0 | 22.5 | 0.00 | 0.00 | 0.00 | 89 | 1015.5 |
| 20260506062205 | 4 | 35 | 1.6 | 3.2 | 0.00 | 0.00 | 0.00 | 91 | 1015.4 |
| 20260506061706 | 3 | 21 | 1.6 | 1.6 | 0.00 | 0.00 | 0.00 | 91 | 1015.4 |
| 20260506061206 | 3 | 1 | 1.6 | 3.2 | 0.00 | 0.00 | 0.00 | 91 | 1015.4 |
| 20260506060705 | 3 | 4 | 4.8 | 12.9 | 0.00 | 0.00 | 0.00 | 91 | 1015.3 |
| 20260506060205 | 3 | 22 | 8.0 | 12.9 | 0.00 | 0.00 | 0.00 | 92 | 1015.3 |
| 20260506051207 | 2 | 38 | 3.2 | 4.8 | 0.00 | 0.00 | 0.00 | 92 | 1015.3 |
| 20260506050705 | 2 | 68 | 1.6 | 3.2 | 0.00 | 0.00 | 0.00 | 91 | 1015.3 |
| 20260506050205 | 1 | 41 | 0.0 | 1.6 | 0.00 | 0.00 | 0.00 | 91 | 1015.3 |
| 20260506044706 | 1 | 60 | 0.0 | 1.6 | 0.00 | 0.00 | 0.00 | 91 | 1015.2 |
| 20260506044205 | 1 | 57 | 0.0 | 3.2 | 0.00 | 0.00 | 0.00 | 90 | 1015.3 |
| 20260506043705 | 1 | 47 | 0.0 | 1.6 | 0.00 | 0.00 | 0.00 | 90 | 1015.2 |
| 20260506043205 | 2 | 27 | 1.6 | 1.6 | 0.00 | 0.00 | 0.00 | 90 | 1015.2 |
| 20260506042705 | 2 | 18 | 0.0 | 1.6 | 0.00 | 0.00 | 0.00 | 90 | 1015.2 |
| 20260506041705 | 2 | 10 | 0.0 | 1.6 | 0.00 | 0.00 | 0.00 | 90 | 1015.2 |
| 20260506041205 | 2 | 29 | 0.0 | 1.6 | 0.00 | 0.00 | 0.00 | 90 | 1015.2 |
| 20260506040705 | 2 | 36 | 0.0 | 1.6 | 0.00 | 0.00 | 0.00 | 90 | 1015.2 |
| 20260506040206 | 2 | 37 | 0.0 | 1.6 | 0.00 | 0.00 | 0.00 | 90 | 1015.3 |
| 20260506035707 | 2 | 37 | 0.0 | 0.0 | 0.00 | 0.00 | 0.00 | 90 | 1015.2 |
| 20260506034705 | 2 | 37 | 1.6 | 1.6 | 0.00 | 0.00 | 0.00 | 90 | 1015.3 |
| 20260506034206 | 2 | 37 | 0.0 | 1.6 | 0.00 | 0.00 | 0.00 | 90 | 1015.3 |
| 20260506033706 | 2 | 37 | 1.6 | 3.2 | 0.00 | 0.00 | 0.00 | 90 | 1015.3 |
| 20260506033206 | 3 | 32 | 1.6 | 8.0 | 0.00 | 0.00 | 0.00 | 90 | 1015.3 |
| 20260506032706 | 3 | 3 | 3.2 | 8.0 | 0.00 | 0.00 | 0.00 | 90 | 1015.3 |
| 20260506031707 | 3 | 1 | 1.6 | 8.0 | 0.00 | 0.00 | 0.00 | 90 | 1015.3 |
| 20260506031206 | 3 | 6 | 1.6 | 8.0 | 0.00 | 0.00 | 0.00 | 90 | 1015.3 |
| 20260506030706 | 3 | 1 | 1.6 | 8.0 | 0.00 | 0.00 | 0.00 | 91 | 1015.3 |
| 20260506025706 | 3 | 1 | 1.6 | 9.7 | 0.00 | 0.00 | 0.00 | 91 | 1015.3 |
| 20260506024705 | 2 | 50 | 1.6 | 3.2 | 0.00 | 0.00 | 0.00 | 90 | 1015.3 |
| 20260506024207 | 2 | 50 | 0.0 | 1.6 | 0.00 | 0.00 | 0.00 | 90 | 1015.4 |
| 20260506023706 | 2 | 49 | 1.6 | 3.2 | 0.00 | 0.00 | 0.00 | 90 | 1015.3 |
| 20260506023205 | 2 | 55 | 0.0 | 3.2 | 0.00 | 0.00 | 0.00 | 90 | 1015.3 |
| 20260506022706 | 2 | 65 | 1.6 | 3.2 | 0.00 | 0.00 | 0.00 | 90 | 1015.3 |
| 20260506022206 | 2 | 0 | 0.0 | 1.6 | 0.00 | 0.00 | 0.00 | 90 | 1015.4 |
| 20260506021206 | 2 | 3 | 1.6 | 3.2 | 0.00 | 0.00 | 0.00 | 89 | 1015.4 |
| 20260506020705 | 2 | 0 | 1.6 | 8.0 | 0.00 | 0.00 | 0.00 | 89 | 1015.4 |
| 20260506020206 | 2 | 6 | 1.6 | 8.0 | 0.00 | 0.00 | 0.00 | 89 | 1015.4 |
| 20260506015206 | 2 | 24 | 0.0 | 4.8 | 0.00 | 0.00 | 0.00 | 88 | 1015.5 |
| 20260506014706 | 2 | 35 | 1.6 | 3.2 | 0.00 | 0.00 | 0.00 | 88 | 1015.4 |
| 20260506014206 | 2 | 40 | 0.0 | 1.6 | 0.00 | 0.00 | 0.00 | 88 | 1015.5 |
| 20260506013704 | 2 | 51 | 0.0 | 3.2 | 0.00 | 0.00 | 0.00 | 88 | 1015.4 |
| 20260506013206 | 2 | 55 | 1.6 | 3.2 | 0.00 | 0.00 | 0.00 | 88 | 1015.4 |
| 20260506012706 | 2 | 47 | 1.6 | 3.2 | 0.00 | 0.00 | 0.00 | 88 | 1015.4 |
| 20260506011705 | 3 | 5 | 1.6 | 3.2 | 0.00 | 0.00 | 0.00 | 88 | 1015.4 |
| 20260506011206 | 3 | 28 | 1.6 | 1.6 | 0.00 | 0.00 | 0.00 | 88 | 1015.4 |
| 20260506010206 | 3 | 22 | 1.6 | 8.0 | 0.00 | 0.00 | 0.00 | 88 | 1015.4 |
| 20260506005706 | 3 | 8 | 3.2 | 8.0 | 0.00 | 0.00 | 0.00 | 88 | 1015.5 |
| 20260506005206 | 2 | 13 | 1.6 | 9.7 | 0.00 | 0.00 | 0.00 | 88 | 1015.5 |
| 20260506004205 | 2 | 359 | 6.4 | 11.3 | 0.00 | 0.00 | 0.00 | 87 | 1015.6 |
| 20260506003706 | 2 | 0 | 3.2 | 8.0 | 0.00 | 0.00 | 0.00 | 87 | 1015.6 |
| 20260506003206 | 2 | 19 | 1.6 | 3.2 | 0.00 | 0.00 | 0.00 | 86 | 1015.6 |
| 20260506002706 | 2 | 22 | 1.6 | 3.2 | 0.00 | 0.00 | 0.00 | 86 | 1015.6 |
| 20260506002205 | 2 | 21 | 0.0 | 1.6 | 0.00 | 0.00 | 0.00 | 87 | 1015.7 |
| 20260506001706 | 2 | 1 | 0.0 | 3.2 | 0.00 | 0.00 | 0.00 | 87 | 1015.6 |
| 20260506000726 | 3 | 1 | 3.2 | 8.0 | 0.00 | 0.00 | 0.00 | 87 | 1015.7 |
| 20260506000206 | 3 | 0 | 3.2 | 8.0 | 0.00 | 0.00 | 0.00 | 87 | 1015.7 |
| 20260505235206 | 3 | 0 | 3.2 | 8.0 | 0.00 | 0.00 | 0.00 | 87 | 1015.8 |
| 20260505234706 | 3 | 0 | 1.6 | 3.2 | 0.00 | 0.00 | 0.00 | 87 | 1015.8 |
| 20260505234206 | 3 | 3 | 0.0 | 3.2 | 0.00 | 0.00 | 0.00 | 86 | 1015.8 |
| 20260505233205 | 3 | 1 | 1.6 | 1.6 | 0.00 | 0.00 | 0.00 | 85 | 1015.9 |
| 20260505231706 | 3 | 7 | 0.0 | 1.6 | 0.00 | 0.00 | 0.00 | 84 | 1016.0 |
| 20260505230712 | 3 | 0 | 3.2 | 8.0 | 0.00 | 0.00 | 0.00 | 84 | 1015.9 |
| 20260505230205 | 3 | 0 | 1.6 | 3.2 | 0.00 | 0.00 | 0.00 | 84 | 1016.0 |
| 20260505225206 | 4 | 1 | 1.6 | 3.2 | 0.00 | 0.00 | 0.00 | 84 | 1016.0 |
| 20260505224707 | 4 | 3 | 1.6 | 9.7 | 0.00 | 0.00 | 0.00 | 84 | 1015.9 |
| 20260505224205 | 4 | 6 | 1.6 | 3.2 | 0.00 | 0.00 | 0.00 | 83 | 1015.9 |
| 20260505223705 | 4 | 17 | 1.6 | 3.2 | 0.00 | 0.00 | 0.00 | 83 | 1015.9 |
| 20260505223206 | 4 | 29 | 3.2 | 4.8 | 0.00 | 0.00 | 0.00 | 83 | 1015.9 |
| 20260505222706 | 5 | 36 | 1.6 | 8.0 | 0.00 | 0.00 | 0.00 | 83 | 1015.9 |
| 20260505222206 | 5 | 27 | 3.2 | 8.0 | 0.00 | 0.00 | 0.00 | 84 | 1016.0 |
| 20260505221706 | 5 | 49 | 1.6 | 8.0 | 0.00 | 0.00 | 0.00 | 84 | 1016.0 |
| 20260505221205 | 5 | 31 | 3.2 | 8.0 | 0.00 | 0.00 | 0.00 | 84 | 1016.0 |
| 20260505220705 | 5 | 42 | 1.6 | 8.0 | 0.00 | 0.00 | 0.00 | 84 | 1016.0 |
| 20260505215706 | 5 | 40 | 4.8 | 11.3 | 0.00 | 0.00 | 0.00 | 85 | 1016.0 |
| 20260505215206 | 5 | 46 | 4.8 | 9.7 | 0.00 | 0.00 | 0.00 | 85 | 1016.0 |
| 20260505214705 | 5 | 46 | 4.8 | 9.7 | 0.00 | 0.00 | 0.00 | 85 | 1016.0 |
| 20260505214206 | 5 | 42 | 3.2 | 9.7 | 0.00 | 0.00 | 0.00 | 85 | 1016.1 |
| 20260505213706 | 5 | 35 | 3.2 | 11.3 | 0.00 | 0.00 | 0.00 | 85 | 1016.1 |
| 20260505212205 | 5 | 35 | 3.2 | 12.9 | 0.00 | 0.00 | 0.00 | 85 | 1016.1 |
| 20260505211706 | 5 | 32 | 4.8 | 12.9 | 0.00 | 0.00 | 0.00 | 85 | 1016.1 |
| 20260505211205 | 5 | 30 | 3.2 | 11.3 | 0.00 | 0.00 | 0.00 | 85 | 1016.2 |
| 20260505210706 | 5 | 24 | 6.4 | 12.9 | 0.00 | 0.00 | 0.00 | 85 | 1016.2 |
| 20260505210206 | 5 | 24 | 6.4 | 12.9 | 0.00 | 0.00 | 0.00 | 85 | 1016.2 |
| 20260505205707 | 5 | 37 | 6.4 | 12.9 | 0.00 | 0.00 | 0.00 | 85 | 1016.2 |
| 20260505205207 | 5 | 37 | 4.8 | 11.3 | 0.00 | 0.00 | 0.00 | 85 | 1016.3 |
| 20260505204707 | 5 | 33 | 4.8 | 16.1 | 0.00 | 0.00 | 0.00 | 85 | 1016.3 |
| 20260505204207 | 5 | 33 | 3.2 | 12.9 | 0.00 | 0.00 | 0.00 | 86 | 1016.2 |
| 20260505203707 | 5 | 45 | 4.8 | 11.3 | 0.00 | 0.00 | 0.00 | 86 | 1016.2 |
| 20260505203206 | 5 | 41 | 6.4 | 14.5 | 0.00 | 0.00 | 0.00 | 86 | 1016.2 |
| 20260505202706 | 5 | 42 | 4.8 | 9.7 | 0.00 | 0.00 | 0.00 | 86 | 1016.2 |
| 20260505202206 | 5 | 27 | 4.8 | 11.3 | 0.00 | 0.00 | 0.00 | 86 | 1016.1 |
| 20260505201707 | 5 | 39 | 3.2 | 9.7 | 0.00 | 0.00 | 0.00 | 86 | 1016.1 |
| 20260505201206 | 5 | 37 | 4.8 | 12.9 | 0.00 | 0.00 | 0.00 | 86 | 1016.1 |
| 20260505200706 | 5 | 52 | 4.8 | 14.5 | 0.00 | 0.00 | 0.00 | 86 | 1016.1 |
| 20260505200206 | 5 | 42 | 4.8 | 12.9 | 0.00 | 0.00 | 0.00 | 86 | 1016.1 |
| 20260505195706 | 5 | 38 | 8.0 | 16.1 | 0.00 | 0.00 | 0.00 | 86 | 1016.0 |
| 20260505194706 | 5 | 50 | 6.4 | 16.1 | 0.00 | 0.00 | 0.00 | 86 | 1016.0 |
| 20260505193706 | 5 | 32 | 6.4 | 20.9 | 0.00 | 0.00 | 0.00 | 86 | 1015.9 |
| 20260505192705 | 5 | 39 | 4.8 | 19.3 | 0.00 | 0.00 | 0.00 | 86 | 1015.9 |
| 20260505192206 | 5 | 55 | 4.8 | 16.1 | 0.00 | 0.00 | 0.00 | 86 | 1015.7 |
| 20260505191705 | 6 | 33 | 9.7 | 27.4 | 0.00 | 0.00 | 0.00 | 86 | 1015.8 |
| 20260505191206 | 6 | 35 | 9.7 | 20.9 | 0.00 | 0.00 | 0.00 | 86 | 1015.7 |
| 20260505190705 | 6 | 30 | 9.7 | 16.1 | 0.00 | 0.00 | 0.00 | 86 | 1015.7 |
| 20260505190206 | 6 | 42 | 9.7 | 16.1 | 0.00 | 0.00 | 0.00 | 86 | 1015.7 |
| 20260505185706 | 6 | 34 | 8.0 | 19.3 | 0.00 | 0.00 | 0.00 | 86 | 1015.7 |
| 20260505185206 | 6 | 54 | 6.4 | 11.3 | 0.00 | 0.00 | 0.00 | 86 | 1015.7 |
| 20260505184706 | 6 | 57 | 6.4 | 20.9 | 0.00 | 0.00 | 0.00 | 85 | 1015.5 |
| 20260505184206 | 6 | 40 | 4.8 | 9.7 | 0.00 | 0.00 | 0.00 | 85 | 1015.5 |
| 20260505183706 | 6 | 44 | 6.4 | 12.9 | 0.00 | 0.00 | 0.00 | 85 | 1015.5 |
| 20260505183206 | 6 | 43 | 9.7 | 20.9 | 0.00 | 0.00 | 0.00 | 85 | 1015.4 |
| 20260505182706 | 6 | 32 | 9.7 | 20.9 | 0.00 | 0.00 | 0.00 | 86 | 1015.5 |
| 20260505182206 | 6 | 46 | 11.3 | 22.5 | 0.00 | 0.00 | 0.00 | 85 | 1015.4 |
| 20260505181706 | 6 | 34 | 9.7 | 12.9 | 0.00 | 0.00 | 0.00 | 85 | 1015.4 |
| 20260505181205 | 6 | 31 | 8.0 | 11.3 | 0.00 | 0.00 | 0.00 | 84 | 1015.5 |
| 20260505180705 | 6 | 46 | 6.4 | 20.9 | 0.00 | 0.00 | 0.00 | 84 | 1015.5 |
| 20260505180206 | 6 | 44 | 8.0 | 20.9 | 0.00 | 0.00 | 0.00 | 84 | 1015.5 |
| 20260505175207 | 6 | 31 | 8.0 | 16.1 | 0.00 | 0.00 | 0.00 | 83 | 1015.5 |
| 20260505174706 | 6 | 38 | 8.0 | 16.1 | 0.00 | 0.00 | 0.00 | 83 | 1015.5 |
| 20260505174206 | 6 | 38 | 4.8 | 12.9 | 0.00 | 0.00 | 0.00 | 83 | 1015.5 |
| 20260505173705 | 6 | 34 | 8.0 | 16.1 | 0.00 | 0.00 | 0.00 | 83 | 1015.5 |
| 20260505172206 | 7 | 33 | 8.0 | 22.5 | 0.00 | 0.00 | 0.00 | 82 | 1015.5 |
| 20260505170205 | 7 | 25 | 9.7 | 12.9 | 0.00 | 0.00 | 0.00 | 82 | 1015.5 |
| 20260505165706 | 7 | 20 | 11.3 | 20.9 | 0.00 | 0.00 | 0.00 | 82 | 1015.5 |
| 20260505164705 | 7 | 22 | 9.7 | 16.1 | 0.00 | 0.00 | 0.00 | 84 | 1015.3 |
| 20260505164206 | 7 | 34 | 8.0 | 16.1 | 0.00 | 0.00 | 0.00 | 83 | 1015.3 |
| 20260505163705 | 7 | 36 | 9.7 | 19.3 | 0.00 | 0.00 | 0.00 | 83 | 1015.3 |
| 20260505163205 | 7 | 8 | 9.7 | 19.3 | 0.00 | 0.00 | 0.00 | 83 | 1015.3 |
| 20260505162706 | 7 | 43 | 9.7 | 20.9 | 0.00 | 0.00 | 0.00 | 82 | 1015.3 |
| 20260505162205 | 7 | 20 | 11.3 | 22.5 | 0.00 | 0.00 | 0.00 | 82 | 1015.3 |
| 20260505161706 | 7 | 32 | 11.3 | 22.5 | 0.00 | 0.00 | 0.00 | 82 | 1015.2 |
| 20260505160705 | 7 | 30 | 11.3 | 19.3 | 0.00 | 0.00 | 0.00 | 83 | 1015.2 |
| 20260505160206 | 7 | 44 | 8.0 | 16.1 | 0.00 | 0.00 | 0.00 | 84 | 1015.2 |
| 20260505153205 | 7 | 29 | 12.9 | 27.4 | 0.00 | 0.00 | 0.00 | 83 | 1014.9 |
| 20260505152708 | 8 | 20 | 11.3 | 22.5 | 0.00 | 0.00 | 0.00 | 83 | 1014.9 |
| 20260505152205 | 8 | 26 | 14.5 | 32.2 | 0.00 | 0.00 | 0.00 | 83 | 1014.8 |
| 20260505151705 | 8 | 10 | 11.3 | 32.2 | 0.00 | 0.00 | 0.00 | 83 | 1014.7 |
| 20260505151205 | 8 | 33 | 11.3 | 22.5 | 0.00 | 0.00 | 0.00 | 82 | 1014.7 |
| 20260505150707 | 8 | 34 | 11.3 | 19.3 | 0.00 | 0.00 | 0.00 | 81 | 1014.7 |
| 20260505150205 | 8 | 18 | 11.3 | 24.1 | 0.00 | 0.00 | 0.00 | 80 | 1014.7 |